Time,TemperatureF,DewpointF,PressureIn,WindDirection,WindDirectionDegrees,WindSpeedMPH,WindSpeedGustMPH,Humidity,HourlyPrecipIn,Conditions,Clouds,dailyrainin,SoftwareType,DateUTC
2013-11-19 08:40:00,41.8,24.0,29.75,NNW,348,6.0,-999.0,49,-99.99,,,0.00,weatherlink.com 1.10,2013-11-19 13:40:00,
2013-11-19 08:43:00,41.8,24.0,29.76,NNE,20,3.0,-999.0,49,-99.99,,,0.00,weatherlink.com 1.10,2013-11-19 13:43:00,
2013-11-19 08:58:00,41.9,24.0,29.77,North,3,6.0,-999.0,49,-99.99,,,0.00,weatherlink.com 1.10,2013-11-19 13:58:00,
2013-11-19 09:13:00,42.2,23.0,29.77,NNE,16,7.0,-999.0,46,-99.99,,,0.00,weatherlink.com 1.10,2013-11-19 14:13:00,
2013-11-19 09:28:00,42.1,23.0,29.79,North,355,8.0,-999.0,47,-99.99,,,0.00,weatherlink.com 1.10,2013-11-19 14:28:00,
2013-11-19 09:43:00,41.9,24.0,29.79,NNE,30,5.0,-999.0,49,-99.99,,,0.00,weatherlink.com 1.10,2013-11-19 14:43:00,
2013-11-19 09:58:00,41.1,24.0,29.80,ENE,60,7.0,-999.0,50,-99.99,,,0.00,weatherlink.com 1.10,2013-11-19 14:58:00,
2013-11-19 10:13:00,40.9,22.0,29.81,NE,44,9.0,-999.0,48,-99.99,,,0.00,weatherlink.com 1.10,2013-11-19 15:13:00,
2013-11-19 10:28:00,41.9,22.0,29.81,NNE,23,7.0,-999.0,46,-99.99,,,0.00,weatherlink.com 1.10,2013-11-19 15:28:00,
2013-11-19 10:43:00,41.8,20.0,29.80,NNE,16,10.0,-999.0,42,-99.99,,,0.00,weatherlink.com 1.10,2013-11-19 15:43:00,
2013-11-19 10:58:00,42.3,20.0,29.81,NNW,331,11.0,-999.0,41,-99.99,,,0.00,weatherlink.com 1.10,2013-11-19 15:58:00,
2013-11-19 11:13:00,42.2,17.0,29.81,North,352,6.0,-999.0,37,-99.99,,,0.00,weatherlink.com 1.10,2013-11-19 16:13:00,
2013-11-19 11:28:00,42.1,17.0,29.81,NW,311,7.0,-999.0,37,-99.99,,,0.00,weatherlink.com 1.10,2013-11-19 16:28:00,
2013-11-19 11:43:00,41.9,17.0,29.82,North,7,6.0,-999.0,36,-99.99,,,0.00,weatherlink.com 1.10,2013-11-19 16:43:00,
2013-11-19 11:58:00,42.6,17.0,29.82,North,359,15.0,-999.0,35,-99.99,,,0.00,weatherlink.com 1.10,2013-11-19 16:58:00,
2013-11-19 12:13:00,42.9,17.0,29.82,ENE,57,7.0,-999.0,35,-99.99,,,0.00,weatherlink.com 1.10,2013-11-19 17:13:00,
2013-11-19 12:28:00,43.2,16.0,29.83,NNW,346,6.0,-999.0,34,-99.99,,,0.00,weatherlink.com 1.10,2013-11-19 17:28:00,
2013-11-19 12:43:00,42.8,17.0,29.84,NNE,27,6.0,-999.0,36,-99.99,,,0.00,weatherlink.com 1.10,2013-11-19 17:43:00,
2013-11-19 12:58:00,42.8,16.0,29.84,East,84,3.0,-999.0,34,-99.99,,,0.00,weatherlink.com 1.10,2013-11-19 17:58:00,
2013-11-19 13:13:00,42.8,16.0,29.84,ENE,60,6.0,-999.0,34,-99.99,,,0.00,weatherlink.com 1.10,2013-11-19 18:13:00,
2013-11-19 13:28:00,43.2,17.0,29.85,NNE,27,2.0,-999.0,35,-99.99,,,0.00,weatherlink.com 1.10,2013-11-19 18:28:00,
2013-11-19 13:44:00,43.1,16.0,29.85,ENE,74,5.0,-999.0,33,-99.99,,,0.00,weatherlink.com 1.10,2013-11-19 18:44:00,
2013-11-19 13:59:00,43.1,17.0,29.86,North,350,7.0,-999.0,35,-99.99,,,0.00,weatherlink.com 1.10,2013-11-19 18:59:00,
2013-11-19 14:14:00,42.9,16.0,29.86,NNE,19,11.0,-999.0,34,-99.99,,,0.00,weatherlink.com 1.10,2013-11-19 19:14:00,
2013-11-19 14:29:00,42.9,17.0,29.87,North,10,2.0,-999.0,35,-99.99,,,0.00,weatherlink.com 1.10,2013-11-19 19:29:00,
2013-11-19 14:44:00,42.9,17.0,29.88,NNE,27,5.0,-999.0,36,-99.99,,,0.00,weatherlink.com 1.10,2013-11-19 19:44:00,
2013-11-19 14:59:00,42.2,17.0,29.88,North,356,6.0,-999.0,36,-99.99,,,0.00,weatherlink.com 1.10,2013-11-19 19:59:00,
2013-11-19 15:14:00,42.1,17.0,29.89,NE,54,3.0,-999.0,36,-99.99,,,0.00,weatherlink.com 1.10,2013-11-19 20:14:00,
2013-11-19 15:29:00,42.1,17.0,29.90,North,6,10.0,-999.0,37,-99.99,,,0.00,weatherlink.com 1.10,2013-11-19 20:29:00,
2013-11-19 15:44:00,41.8,18.0,29.91,NE,46,2.0,-999.0,38,-99.99,,,0.00,weatherlink.com 1.10,2013-11-19 20:44:00,
2013-11-19 15:59:00,41.3,17.0,29.93,North,359,5.0,-999.0,38,-99.99,,,0.00,weatherlink.com 1.10,2013-11-19 20:59:00,
2013-11-19 16:14:00,40.9,18.0,29.94,NNE,19,5.0,-999.0,39,-99.99,,,0.00,weatherlink.com 1.10,2013-11-19 21:14:00,
2013-11-19 16:29:00,40.3,17.0,29.95,NE,44,6.0,-999.0,39,-99.99,,,0.00,weatherlink.com 1.10,2013-11-19 21:29:00,
2013-11-19 16:44:00,39.9,17.0,29.96,NE,47,7.0,-999.0,40,-99.99,,,0.00,weatherlink.com 1.10,2013-11-19 21:44:00,
2013-11-19 16:59:00,39.5,17.0,29.97,North,350,6.0,-999.0,41,-99.99,,,0.00,weatherlink.com 1.10,2013-11-19 21:59:00,
2013-11-19 17:14:00,39.2,18.0,29.99,North,6,2.0,-999.0,42,-99.99,,,0.00,weatherlink.com 1.10,2013-11-19 22:14:00,
2013-11-19 17:29:00,38.9,17.0,29.99,NE,38,6.0,-999.0,42,-99.99,,,0.00,weatherlink.com 1.10,2013-11-19 22:29:00,
2013-11-19 17:44:00,38.8,17.0,29.99,NE,54,7.0,-999.0,42,-99.99,,,0.00,weatherlink.com 1.10,2013-11-19 22:44:00,
2013-11-19 17:59:00,38.6,18.0,30.00,North,9,3.0,-999.0,43,-99.99,,,0.00,weatherlink.com 1.10,2013-11-19 22:59:00,
2013-11-19 18:14:00,38.3,17.0,30.00,NNE,29,4.0,-999.0,43,-99.99,,,0.00,weatherlink.com 1.10,2013-11-19 23:14:00,
2013-11-19 18:44:00,37.8,18.0,30.02,NNE,16,3.0,-999.0,44,-99.99,,,0.00,weatherlink.com 1.10,2013-11-19 23:44:00,
2013-11-19 18:59:00,37.5,18.0,30.03,NE,54,8.0,-999.0,45,-99.99,,,0.00,weatherlink.com 1.10,2013-11-19 23:59:00,
2013-11-19 19:14:00,37.0,17.0,30.04,NE,54,4.0,-999.0,45,-99.99,,,0.00,weatherlink.com 1.10,2013-11-20 00:14:00,
2013-11-19 19:29:00,36.8,18.0,30.04,NNE,27,6.0,-999.0,46,-99.99,,,0.00,weatherlink.com 1.10,2013-11-20 00:29:00,
2013-11-19 19:44:00,36.5,18.0,30.04,NE,50,1.0,-999.0,47,-99.99,,,0.00,weatherlink.com 1.10,2013-11-20 00:44:00,
2013-11-19 19:59:00,36.2,18.0,30.06,North,7,10.0,-999.0,47,-99.99,,,0.00,weatherlink.com 1.10,2013-11-20 00:59:00,
2013-11-19 20:14:00,36.0,17.0,30.07,NNE,27,7.0,-999.0,47,-99.99,,,0.00,weatherlink.com 1.10,2013-11-20 01:14:00,
2013-11-19 20:29:00,35.8,18.0,30.07,NE,36,2.0,-999.0,48,-99.99,,,0.00,weatherlink.com 1.10,2013-11-20 01:29:00,
2013-11-19 20:44:00,35.3,18.0,30.08,NE,43,10.0,-999.0,49,-99.99,,,0.00,weatherlink.com 1.10,2013-11-20 01:44:00,
2013-11-19 20:59:00,35.0,18.0,30.08,NNE,20,6.0,-999.0,50,-99.99,,,0.00,weatherlink.com 1.10,2013-11-20 01:59:00,
2013-11-19 21:14:00,34.9,17.0,30.09,North,3,6.0,-999.0,49,-99.99,,,0.00,weatherlink.com 1.10,2013-11-20 02:14:00,
2013-11-19 21:29:00,34.9,17.0,30.09,NNE,20,15.0,-999.0,49,-99.99,,,0.00,weatherlink.com 1.10,2013-11-20 02:29:00,
2013-11-19 21:44:00,34.4,17.0,30.10,NNE,23,6.0,-999.0,50,-99.99,,,0.00,weatherlink.com 1.10,2013-11-20 02:44:00,
2013-11-19 21:59:00,34.0,17.0,30.10,NNE,20,2.0,-999.0,51,-99.99,,,0.00,weatherlink.com 1.10,2013-11-20 02:59:00,
2013-11-19 22:14:00,33.5,17.0,30.11,NE,54,4.0,-999.0,52,-99.99,,,0.00,weatherlink.com 1.10,2013-11-20 03:14:00,
2013-11-19 22:29:00,33.5,17.0,30.12,NE,53,5.0,-999.0,50,-99.99,,,0.00,weatherlink.com 1.10,2013-11-20 03:29:00,
2013-11-19 22:44:00,33.4,16.0,30.13,NNE,30,11.0,-999.0,49,-99.99,,,0.00,weatherlink.com 1.10,2013-11-20 03:44:00,
2013-11-19 22:59:00,33.1,16.0,30.14,NE,47,7.0,-999.0,49,-99.99,,,0.00,weatherlink.com 1.10,2013-11-20 03:59:00,
2013-11-19 23:15:00,32.8,16.0,30.14,North,7,6.0,-999.0,50,-99.99,,,0.00,weatherlink.com 1.10,2013-11-20 04:15:00,
2013-11-19 23:30:00,32.7,15.0,30.14,NNE,27,7.0,-999.0,49,-99.99,,,0.00,weatherlink.com 1.10,2013-11-20 04:30:00,
2013-11-19 23:45:00,32.4,16.0,30.15,NNE,31,5.0,-999.0,50,-99.99,,,0.00,weatherlink.com 1.10,2013-11-20 04:45:00,